| time (UTC) | temp F | wind direction | speed knots | gust knots | rain 1hr in | rain 24hr in | rain mn in | humidity % | barometer mb |
| 20260507211005 | 55 | 91 | 1.7 | 5.2 | 0.00 | 0.05 | 0.05 | 75 | 1016.4 |
| 20260507210503 | 54 | 77 | 1.7 | 7.0 | 0.00 | 0.05 | 0.05 | 76 | 1016.3 |
| 20260507210212 | 54 | 69 | 1.7 | 7.0 | 0.00 | 0.05 | 0.05 | 76 | 1016.3 |
| 20260507205505 | 53 | 72 | 0.9 | 5.2 | 0.00 | 0.05 | 0.05 | 79 | 1016.3 |
| 20260507205003 | 53 | 70 | 0.9 | 5.2 | 0.00 | 0.05 | 0.05 | 80 | 1016.2 |
| 20260507204505 | 53 | 75 | 0.9 | 5.2 | 0.00 | 0.05 | 0.05 | 83 | 1016.3 |
| 20260507204210 | 53 | 53 | 0.9 | 5.2 | 0.00 | 0.05 | 0.05 | 84 | 1016.3 |
| 20260507203503 | 53 | 303 | 0.9 | 1.7 | 0.00 | 0.05 | 0.05 | 85 | 1016.2 |
| 20260507203005 | 53 | 316 | 0.9 | 1.7 | 0.00 | 0.05 | 0.05 | 86 | 1016.3 |
| 20260507202503 | 53 | 316 | 0.9 | 2.6 | 0.00 | 0.05 | 0.05 | 86 | 1016.1 |
| 20260507202003 | 53 | 315 | 0.0 | 2.6 | 0.00 | 0.05 | 0.05 | 86 | 1016.1 |
| 20260507201503 | 54 | 315 | 0.0 | 1.7 | 0.00 | 0.05 | 0.05 | 85 | 1016.1 |
| 20260507201003 | 54 | 315 | 0.9 | 0.9 | 0.00 | 0.05 | 0.05 | 85 | 1015.9 |
| 20260507200505 | 54 | 315 | 0.9 | 2.6 | 0.00 | 0.05 | 0.05 | 84 | 1015.8 |
| 20260507200004 | 54 | 315 | 0.9 | 2.6 | 0.00 | 0.05 | 0.05 | 85 | 1015.7 |
| 20260507195505 | 54 | 315 | 0.9 | 1.7 | 0.00 | 0.05 | 0.05 | 85 | 1015.6 |
| 20260507195003 | 54 | 315 | 0.0 | 1.7 | 0.00 | 0.05 | 0.05 | 84 | 1015.3 |
| 20260507194710 | 54 | 315 | 0.0 | 1.7 | 0.00 | 0.05 | 0.05 | 84 | 1015.1 |
| 20260507194005 | 55 | 315 | 0.9 | 1.7 | 0.00 | 0.05 | 0.05 | 83 | 1015.0 |
| 20260507193503 | 55 | 315 | 0.0 | 1.7 | 0.00 | 0.05 | 0.05 | 83 | 1014.8 |
| 20260507193005 | 55 | 315 | 0.0 | 1.7 | 0.00 | 0.05 | 0.05 | 82 | 1014.7 |
| 20260507192503 | 56 | 315 | 0.0 | 0.9 | 0.00 | 0.05 | 0.05 | 81 | 1014.7 |
| 20260507192005 | 56 | 314 | 0.0 | 1.7 | 0.00 | 0.05 | 0.05 | 81 | 1014.5 |
| 20260507191505 | 56 | 313 | 0.0 | 1.7 | 0.00 | 0.05 | 0.05 | 82 | 1014.3 |
| 20260507191003 | 57 | 290 | 0.0 | 2.6 | 0.00 | 0.05 | 0.05 | 81 | 1014.2 |
| 20260507190505 | 57 | 279 | 0.0 | 2.6 | 0.00 | 0.05 | 0.05 | 80 | 1014.1 |
| 20260507190005 | 57 | 256 | 0.0 | 1.7 | 0.00 | 0.05 | 0.05 | 80 | 1014.0 |
| 20260507185711 | 58 | 262 | 0.0 | 2.6 | 0.00 | 0.05 | 0.05 | 80 | 1013.9 |
| 20260507185005 | 58 | 295 | 0.0 | 2.6 | 0.00 | 0.05 | 0.05 | 79 | 1013.8 |
| 20260507184503 | 58 | 339 | 0.0 | 0.9 | 0.00 | 0.05 | 0.05 | 78 | 1013.8 |
| 20260507184003 | 59 | 339 | 0.9 | 0.9 | 0.00 | 0.05 | 0.05 | 78 | 1013.7 |
| 20260507183505 | 59 | 339 | 0.9 | 3.5 | 0.00 | 0.05 | 0.05 | 77 | 1013.7 |
| 20260507183210 | 59 | 334 | 0.9 | 3.5 | 0.00 | 0.05 | 0.05 | 77 | 1013.6 |
| 20260507182503 | 60 | 317 | 0.9 | 2.6 | 0.00 | 0.05 | 0.05 | 77 | 1013.5 |
| 20260507182005 | 60 | 316 | 0.9 | 2.6 | 0.00 | 0.05 | 0.05 | 77 | 1013.3 |
| 20260507181503 | 60 | 314 | 0.9 | 2.6 | 0.00 | 0.05 | 0.05 | 76 | 1013.3 |
| 20260507181212 | 61 | 317 | 0.9 | 2.6 | 0.00 | 0.05 | 0.05 | 75 | 1013.3 |
| 20260507180711 | 61 | 328 | 1.7 | 2.6 | 0.00 | 0.05 | 0.05 | 75 | 1013.3 |
| 20260507180004 | 62 | 324 | 1.7 | 4.3 | 0.00 | 0.05 | 0.05 | 75 | 1013.2 |
| 20260507175505 | 62 | 314 | 1.7 | 4.3 | 0.00 | 0.05 | 0.05 | 75 | 1013.1 |
| 20260507175003 | 62 | 319 | 0.9 | 3.5 | 0.00 | 0.05 | 0.05 | 73 | 1013.1 |
| 20260507174503 | 63 | 328 | 0.9 | 2.6 | 0.00 | 0.05 | 0.05 | 73 | 1012.9 |
| 20260507174005 | 64 | 324 | 1.7 | 2.6 | 0.00 | 0.05 | 0.05 | 72 | 1012.9 |
| 20260507173710 | 64 | 325 | 1.7 | 3.5 | 0.00 | 0.05 | 0.05 | 72 | 1012.9 |
| 20260507173005 | 64 | 306 | 0.9 | 3.5 | 0.00 | 0.05 | 0.05 | 71 | 1012.8 |
| 20260507172503 | 65 | 285 | 0.9 | 2.6 | 0.00 | 0.05 | 0.05 | 70 | 1012.8 |
| 20260507172003 | 66 | 280 | 0.9 | 1.7 | 0.00 | 0.05 | 0.05 | 68 | 1012.8 |
| 20260507171505 | 66 | 270 | 1.7 | 2.6 | 0.00 | 0.05 | 0.05 | 67 | 1012.7 |
| 20260507171003 | 66 | 258 | 1.7 | 4.3 | 0.00 | 0.05 | 0.05 | 65 | 1012.8 |
| 20260507170503 | 67 | 241 | 1.7 | 5.2 | 0.00 | 0.05 | 0.05 | 65 | 1012.7 |
| 20260507170005 | 67 | 223 | 0.9 | 7.0 | 0.00 | 0.05 | 0.05 | 64 | 1012.6 |
| 20260507165503 | 67 | 194 | 0.9 | 7.0 | 0.00 | 0.05 | 0.05 | 64 | 1012.7 |
| 20260507165003 | 67 | 152 | 1.7 | 3.5 | 0.00 | 0.05 | 0.05 | 64 | 1012.8 |
| 20260507164505 | 68 | 222 | 3.5 | 5.2 | 0.00 | 0.05 | 0.05 | 64 | 1012.7 |
| 20260507164003 | 68 | 246 | 3.5 | 7.8 | 0.00 | 0.05 | 0.05 | 63 | 1012.7 |
| 20260507163505 | 68 | 248 | 3.5 | 10.4 | 0.00 | 0.05 | 0.05 | 62 | 1012.7 |
| 20260507163003 | 68 | 249 | 2.6 | 10.4 | 0.00 | 0.05 | 0.05 | 63 | 1012.6 |
| 20260507162505 | 68 | 253 | 2.6 | 8.7 | 0.00 | 0.05 | 0.05 | 62 | 1012.5 |
| 20260507162003 | 69 | 242 | 3.5 | 7.0 | 0.00 | 0.05 | 0.05 | 63 | 1012.5 |
| 20260507161712 | 69 | 225 | 3.5 | 7.0 | 0.00 | 0.05 | 0.05 | 64 | 1012.5 |
| 20260507161003 | 69 | 236 | 3.5 | 7.0 | 0.00 | 0.05 | 0.05 | 63 | 1012.4 |
| 20260507160710 | 69 | 242 | 3.5 | 7.0 | 0.00 | 0.05 | 0.05 | 62 | 1012.4 |
| 20260507160213 | 69 | 236 | 2.6 | 7.0 | 0.00 | 0.05 | 0.05 | 63 | 1012.3 |
| 20260507155503 | 69 | 217 | 2.6 | 5.2 | 0.00 | 0.05 | 0.05 | 63 | 1012.5 |
| 20260507155005 | 69 | 226 | 2.6 | 3.5 | 0.00 | 0.05 | 0.05 | 61 | 1012.3 |
| 20260507154503 | 69 | 242 | 2.6 | 4.3 | 0.00 | 0.05 | 0.05 | 63 | 1012.4 |
| 20260507154005 | 69 | 245 | 2.6 | 6.1 | 0.00 | 0.05 | 0.05 | 63 | 1012.3 |
| 20260507153504 | 69 | 247 | 2.6 | 6.1 | 0.00 | 0.05 | 0.05 | 62 | 1012.3 |
| 20260507153005 | 69 | 263 | 2.6 | 6.1 | 0.00 | 0.05 | 0.05 | 62 | 1012.3 |
| 20260507152711 | 69 | 263 | 2.6 | 5.2 | 0.00 | 0.05 | 0.05 | 62 | 1012.4 |
| 20260507152005 | 68 | 268 | 1.7 | 5.2 | 0.00 | 0.05 | 0.05 | 61 | 1012.2 |
| 20260507151503 | 68 | 303 | 1.7 | 4.3 | 0.00 | 0.05 | 0.05 | 61 | 1012.4 |
| 20260507151003 | 68 | 298 | 1.7 | 4.3 | 0.00 | 0.05 | 0.05 | 64 | 1012.3 |
| 20260507150712 | 68 | 289 | 1.7 | 5.2 | 0.00 | 0.05 | 0.05 | 64 | 1012.3 |
| 20260507150005 | 68 | 260 | 1.7 | 5.2 | 0.00 | 0.05 | 0.05 | 65 | 1012.4 |
| 20260507145505 | 68 | 254 | 2.6 | 5.2 | 0.00 | 0.05 | 0.05 | 65 | 1012.3 |
| 20260507145003 | 68 | 233 | 3.5 | 6.1 | 0.00 | 0.05 | 0.05 | 67 | 1012.4 |
| 20260507144503 | 67 | 228 | 2.6 | 6.1 | 0.00 | 0.05 | 0.05 | 65 | 1012.4 |
| 20260507144005 | 67 | 247 | 2.6 | 7.8 | 0.00 | 0.05 | 0.05 | 64 | 1012.5 |
| 20260507143503 | 67 | 252 | 2.6 | 7.8 | 0.00 | 0.05 | 0.05 | 65 | 1012.4 |
| 20260507143003 | 67 | 243 | 2.6 | 5.2 | 0.00 | 0.05 | 0.05 | 67 | 1012.5 |
| 20260507142505 | 67 | 240 | 3.5 | 5.2 | 0.00 | 0.05 | 0.05 | 68 | 1012.4 |
| 20260507142003 | 67 | 231 | 3.5 | 9.6 | 0.00 | 0.05 | 0.05 | 69 | 1012.5 |
| 20260507141503 | 67 | 259 | 2.6 | 9.6 | 0.00 | 0.05 | 0.05 | 70 | 1012.5 |
| 20260507141006 | 66 | 316 | 2.6 | 7.0 | 0.00 | 0.05 | 0.05 | 71 | 1012.6 |
| 20260507140503 | 66 | 253 | 2.6 | 7.0 | 0.00 | 0.05 | 0.05 | 72 | 1012.6 |
| 20260507140005 | 66 | 222 | 2.6 | 5.2 | 0.00 | 0.05 | 0.05 | 72 | 1012.7 |
| 20260507135505 | 65 | 225 | 2.6 | 5.2 | 0.00 | 0.05 | 0.05 | 73 | 1012.8 |
| 20260507135003 | 65 | 241 | 2.6 | 5.2 | 0.00 | 0.05 | 0.05 | 72 | 1012.8 |
| 20260507134505 | 65 | 238 | 3.5 | 7.0 | 0.00 | 0.05 | 0.05 | 71 | 1013.0 |
| 20260507134003 | 65 | 233 | 2.6 | 7.8 | 0.00 | 0.05 | 0.05 | 70 | 1012.9 |
| 20260507133505 | 65 | 236 | 1.7 | 7.8 | 0.00 | 0.05 | 0.05 | 72 | 1013.0 |
| 20260507133211 | 65 | 235 | 1.7 | 7.8 | 0.00 | 0.05 | 0.05 | 74 | 1013.2 |
| 20260507132503 | 65 | 253 | 2.6 | 4.3 | 0.00 | 0.05 | 0.05 | 76 | 1013.2 |
| 20260507132212 | 65 | 269 | 2.6 | 7.0 | 0.00 | 0.05 | 0.05 | 75 | 1013.4 |
| 20260507131503 | 65 | 265 | 2.6 | 7.0 | 0.00 | 0.05 | 0.05 | 74 | 1013.4 |
| 20260507131005 | 65 | 238 | 2.6 | 5.2 | 0.01 | 0.05 | 0.05 | 73 | 1013.5 |
| 20260507130503 | 65 | 239 | 2.6 | 8.7 | 0.01 | 0.05 | 0.05 | 73 | 1013.6 |
| 20260507130005 | 65 | 243 | 1.7 | 8.7 | 0.01 | 0.05 | 0.05 | 73 | 1013.6 |
| 20260507125503 | 65 | 214 | 1.7 | 4.3 | 0.01 | 0.05 | 0.05 | 76 | 1013.6 |
| 20260507125212 | 64 | 245 | 1.7 | 4.3 | 0.01 | 0.05 | 0.05 | 76 | 1013.6 |
| 20260507124503 | 64 | 265 | 1.7 | 6.1 | 0.01 | 0.05 | 0.05 | 75 | 1013.6 |
| 20260507124005 | 64 | 265 | 2.6 | 5.2 | 0.01 | 0.05 | 0.05 | 77 | 1013.6 |
| 20260507123503 | 64 | 245 | 3.5 | 5.2 | 0.01 | 0.05 | 0.05 | 79 | 1013.7 |
| 20260507123003 | 64 | 233 | 3.5 | 5.2 | 0.01 | 0.05 | 0.05 | 80 | 1013.6 |
| 20260507122503 | 64 | 250 | 2.6 | 6.1 | 0.01 | 0.05 | 0.05 | 80 | 1013.7 |
| 20260507122004 | 64 | 257 | 2.6 | 6.1 | 0.01 | 0.05 | 0.05 | 81 | 1013.7 |
| 20260507121505 | 64 | 231 | 2.6 | 7.0 | 0.01 | 0.05 | 0.05 | 81 | 1013.7 |
| 20260507121003 | 64 | 232 | 2.6 | 7.0 | 0.00 | 0.04 | 0.04 | 79 | 1013.7 |
| 20260507120503 | 64 | 253 | 2.6 | 5.2 | 0.00 | 0.04 | 0.04 | 79 | 1014.0 |
| 20260507120006 | 64 | 162 | 2.6 | 7.8 | 0.00 | 0.04 | 0.04 | 79 | 1014.0 |
| 20260507115503 | 64 | 158 | 3.5 | 7.8 | 0.00 | 0.04 | 0.04 | 78 | 1013.9 |
| 20260507115005 | 65 | 236 | 3.5 | 8.7 | 0.00 | 0.04 | 0.04 | 77 | 1014.0 |
| 20260507114503 | 65 | 240 | 2.6 | 8.7 | 0.00 | 0.04 | 0.04 | 78 | 1013.9 |
| 20260507114211 | 65 | 254 | 2.6 | 7.8 | 0.00 | 0.04 | 0.04 | 77 | 1013.9 |
| 20260507113712 | 64 | 263 | 2.6 | 6.1 | 0.00 | 0.04 | 0.04 | 78 | 1013.7 |
| 20260507113004 | 64 | 244 | 4.3 | 7.8 | 0.00 | 0.04 | 0.04 | 77 | 1013.6 |
| 20260507112505 | 64 | 248 | 4.3 | 8.7 | 0.00 | 0.04 | 0.04 | 76 | 1013.8 |
| 20260507112003 | 64 | 244 | 3.5 | 8.7 | 0.00 | 0.04 | 0.04 | 77 | 1013.9 |
| 20260507111712 | 64 | 239 | 3.5 | 8.7 | 0.00 | 0.04 | 0.04 | 77 | 1013.9 |
| 20260507111003 | 64 | 148 | 2.6 | 7.8 | 0.00 | 0.04 | 0.04 | 80 | 1014.0 |
| 20260507110505 | 64 | 129 | 2.6 | 7.0 | 0.00 | 0.04 | 0.04 | 80 | 1014.0 |
| 20260507110004 | 64 | 121 | 1.7 | 7.0 | 0.00 | 0.04 | 0.04 | 82 | 1014.1 |
| 20260507105505 | 63 | 134 | 2.6 | 7.0 | 0.00 | 0.04 | 0.04 | 81 | 1014.1 |
| 20260507105210 | 63 | 75 | 2.6 | 5.2 | 0.00 | 0.04 | 0.04 | 84 | 1014.1 |
| 20260507104506 | 63 | 97 | 1.7 | 7.0 | 0.00 | 0.04 | 0.04 | 84 | 1014.1 |
| 20260507104003 | 62 | 105 | 1.7 | 7.0 | 0.00 | 0.04 | 0.04 | 85 | 1014.1 |
| 20260507103505 | 62 | 92 | 1.7 | 3.5 | 0.00 | 0.04 | 0.04 | 85 | 1014.1 |
| 20260507103005 | 62 | 178 | 1.7 | 4.3 | 0.00 | 0.04 | 0.04 | 85 | 1014.1 |
| 20260507102503 | 62 | 193 | 1.7 | 4.3 | 0.00 | 0.06 | 0.04 | 85 | 1014.1 |
| 20260507102003 | 61 | 130 | 1.7 | 3.5 | 0.00 | 0.06 | 0.04 | 84 | 1014.2 |
| 20260507101506 | 61 | 140 | 1.7 | 3.5 | 0.00 | 0.06 | 0.04 | 84 | 1014.1 |
| 20260507101003 | 61 | 167 | 1.7 | 4.3 | 0.00 | 0.06 | 0.04 | 85 | 1014.2 |
| 20260507100712 | 61 | 177 | 0.9 | 4.3 | 0.00 | 0.06 | 0.04 | 85 | 1014.2 |
| 20260507100005 | 61 | 150 | 0.9 | 3.5 | 0.00 | 0.06 | 0.04 | 85 | 1014.3 |
| 20260507095503 | 61 | 95 | 0.9 | 3.5 | 0.00 | 0.06 | 0.04 | 84 | 1014.3 |
| 20260507095005 | 60 | 94 | 0.9 | 3.5 | 0.00 | 0.06 | 0.04 | 86 | 1014.2 |
| 20260507094504 | 60 | 79 | 0.9 | 1.7 | 0.00 | 0.06 | 0.04 | 86 | 1014.3 |
| 20260507094005 | 60 | 42 | 0.9 | 1.7 | 0.00 | 0.06 | 0.04 | 88 | 1014.3 |
| 20260507093503 | 60 | 21 | 0.9 | 1.7 | 0.00 | 0.06 | 0.04 | 87 | 1014.3 |
| 20260507093005 | 60 | 348 | 0.9 | 1.7 | 0.00 | 0.06 | 0.04 | 87 | 1014.3 |
| 20260507092503 | 59 | 348 | 0.9 | 2.6 | 0.00 | 0.06 | 0.04 | 88 | 1014.3 |
| 20260507092003 | 59 | 348 | 0.9 | 2.6 | 0.00 | 0.06 | 0.04 | 88 | 1014.3 |
| 20260507091505 | 59 | 348 | 0.9 | 1.7 | 0.00 | 0.06 | 0.04 | 88 | 1014.3 |
| 20260507091211 | 59 | 348 | 0.0 | 1.7 | 0.00 | 0.06 | 0.04 | 89 | 1014.3 |
| 20260507090710 | 59 | 347 | 0.9 | 1.7 | 0.00 | 0.06 | 0.04 | 90 | 1014.3 |
| 20260507090213 | 58 | 346 | 0.9 | 1.7 | 0.00 | 0.06 | 0.04 | 90 | 1014.2 |
| 20260507085503 | 58 | 345 | 0.0 | 1.7 | 0.00 | 0.06 | 0.04 | 90 | 1014.3 |
| 20260507085003 | 58 | 344 | 0.0 | 0.9 | 0.00 | 0.06 | 0.04 | 90 | 1014.2 |
| 20260507084503 | 58 | 344 | 0.0 | 1.7 | 0.00 | 0.06 | 0.04 | 91 | 1014.2 |
| 20260507084003 | 58 | 344 | 0.0 | 1.7 | 0.01 | 0.06 | 0.04 | 91 | 1014.0 |
| 20260507083505 | 57 | 343 | 0.0 | 0.9 | 0.01 | 0.06 | 0.04 | 91 | 1014.1 |
| 20260507083004 | 57 | 343 | 0.0 | 0.9 | 0.01 | 0.06 | 0.04 | 91 | 1014.1 |
| 20260507082505 | 57 | 343 | 0.0 | 1.7 | 0.01 | 0.06 | 0.04 | 91 | 1014.0 |
| 20260507082003 | 57 | 343 | 0.0 | 1.7 | 0.01 | 0.06 | 0.04 | 91 | 1013.9 |
| 20260507081503 | 57 | 343 | 0.0 | 1.7 | 0.01 | 0.06 | 0.04 | 91 | 1014.0 |
| 20260507081005 | 57 | 342 | 0.0 | 0.9 | 0.01 | 0.06 | 0.04 | 91 | 1014.1 |
| 20260507080710 | 57 | 342 | 0.0 | 0.9 | 0.01 | 0.06 | 0.04 | 91 | 1014.2 |
| 20260507080004 | 57 | 342 | 0.0 | 0.9 | 0.01 | 0.06 | 0.04 | 91 | 1014.1 |
| 20260507075505 | 57 | 342 | 0.0 | 1.7 | 0.01 | 0.06 | 0.04 | 91 | 1014.1 |
| 20260507075003 | 57 | 344 | 0.0 | 1.7 | 0.01 | 0.06 | 0.04 | 91 | 1014.1 |
| 20260507074712 | 57 | 344 | 0.0 | 1.7 | 0.01 | 0.06 | 0.04 | 91 | 1014.0 |
| 20260507074003 | 57 | 345 | 0.9 | 0.9 | 0.00 | 0.06 | 0.03 | 91 | 1013.7 |
| 20260507073505 | 57 | 345 | 0.9 | 1.7 | 0.00 | 0.06 | 0.03 | 91 | 1013.8 |
| 20260507073211 | 56 | 344 | 0.9 | 1.7 | 0.00 | 0.06 | 0.03 | 91 | 1013.7 |
| 20260507072503 | 56 | 344 | 0.0 | 1.7 | 0.00 | 0.06 | 0.03 | 91 | 1013.5 |
| 20260507072212 | 56 | 344 | 0.0 | 1.7 | 0.00 | 0.06 | 0.03 | 92 | 1013.7 |
| 20260507071504 | 56 | 0 | 0.0 | 0.0 | 0.00 | 0.06 | 0.03 | 91 | 1013.7 |
| 20260507071003 | 56 | 0 | 0.0 | 0.0 | 0.00 | 0.06 | 0.03 | 91 | 1013.7 |
| 20260507070505 | 56 | 343 | 0.0 | 0.9 | 0.00 | 0.06 | 0.03 | 91 | 1013.7 |
| 20260507070009 | 56 | 343 | 0.0 | 0.9 | 0.00 | 0.06 | 0.03 | 91 | 1013.6 |
| 20260507065503 | 56 | 0 | 0.0 | 0.0 | 0.00 | 0.06 | 0.03 | 91 | 1013.7 |
| 20260507065005 | 56 | 343 | 0.0 | 0.9 | 0.00 | 0.06 | 0.03 | 91 | 1013.6 |
| 20260507064503 | 55 | 343 | 0.0 | 0.9 | 0.00 | 0.06 | 0.03 | 92 | 1013.5 |
| 20260507064005 | 55 | 343 | 0.0 | 0.9 | 0.00 | 0.06 | 0.03 | 91 | 1013.6 |
| 20260507063503 | 55 | 343 | 0.0 | 0.9 | 0.00 | 0.06 | 0.03 | 91 | 1013.5 |
| 20260507063005 | 55 | 343 | 0.0 | 0.9 | 0.00 | 0.06 | 0.03 | 92 | 1013.4 |
| 20260507062710 | 55 | 343 | 0.0 | 0.9 | 0.00 | 0.06 | 0.03 | 92 | 1013.4 |
| 20260507062210 | 55 | 343 | 0.0 | 1.7 | 0.00 | 0.06 | 0.03 | 92 | 1013.3 |
| 20260507061505 | 54 | 343 | 0.0 | 1.7 | 0.00 | 0.06 | 0.03 | 93 | 1013.3 |
| 20260507061211 | 54 | 340 | 0.0 | 1.7 | 0.00 | 0.06 | 0.03 | 93 | 1013.3 |
| 20260507060503 | 54 | 328 | 0.0 | 1.7 | 0.00 | 0.06 | 0.03 | 93 | 1013.2 |
| 20260507060005 | 54 | 0 | 0.0 | 0.0 | 0.00 | 0.06 | 0.03 | 93 | 1013.2 |
| 20260507055503 | 54 | 0 | 0.0 | 0.0 | 0.00 | 0.06 | 0.03 | 93 | 1013.2 |
| 20260507055005 | 54 | 0 | 0.0 | 0.0 | 0.00 | 0.06 | 0.03 | 93 | 1013.2 |
| 20260507054503 | 54 | 0 | 0.0 | 0.0 | 0.00 | 0.06 | 0.03 | 93 | 1013.4 |
| 20260507053503 | 53 | 0 | 0.0 | 0.0 | 0.00 | 0.06 | 0.03 | 93 | 1013.2 |
| 20260507053005 | 53 | 0 | 0.0 | 0.0 | 0.00 | 0.06 | 0.03 | 93 | 1013.2 |
| 20260507052710 | 53 | 0 | 0.0 | 0.0 | 0.00 | 0.06 | 0.03 | 93 | 1013.2 |
| 20260507052003 | 53 | 316 | 0.0 | 0.9 | 0.00 | 0.06 | 0.03 | 93 | 1013.1 |
| 20260507051505 | 53 | 316 | 0.0 | 0.9 | 0.00 | 0.06 | 0.03 | 93 | 1013.2 |
| 20260507051003 | 53 | 316 | 0.0 | 0.9 | 0.00 | 0.06 | 0.03 | 93 | 1013.1 |
| 20260507050505 | 52 | 316 | 0.0 | 0.9 | 0.01 | 0.06 | 0.03 | 93 | 1013.1 |
| 20260507050211 | 52 | 316 | 0.0 | 0.9 | 0.01 | 0.06 | 0.03 | 93 | 1013.1 |
| 20260507045503 | 52 | 0 | 0.0 | 0.0 | 0.01 | 0.06 | 0.03 | 92 | 1013.0 |
| 20260507045005 | 52 | 0 | 0.0 | 0.0 | 0.01 | 0.06 | 0.03 | 92 | 1012.8 |
| 20260507044503 | 52 | 316 | 0.0 | 0.9 | 0.01 | 0.06 | 0.03 | 92 | 1012.7 |
| 20260507044005 | 52 | 316 | 0.0 | 0.9 | 0.01 | 0.06 | 0.03 | 93 | 1012.6 |
| 20260507043503 | 52 | 316 | 0.0 | 0.9 | 0.01 | 0.06 | 0.03 | 93 | 1012.5 |
| 20260507043003 | 52 | 316 | 0.0 | 1.7 | 0.01 | 0.06 | 0.03 | 93 | 1012.5 |
| 20260507042505 | 52 | 316 | 0.0 | 1.7 | 0.01 | 0.06 | 0.03 | 92 | 1012.4 |
| 20260507042003 | 52 | 316 | 0.0 | 0.9 | 0.01 | 0.06 | 0.03 | 92 | 1012.4 |
| 20260507041503 | 52 | 316 | 0.0 | 1.7 | 0.01 | 0.06 | 0.03 | 92 | 1012.4 |
| 20260507041003 | 52 | 316 | 0.0 | 1.7 | 0.01 | 0.06 | 0.03 | 92 | 1012.3 |
| 20260507040503 | 52 | 316 | 0.0 | 0.9 | 0.00 | 0.05 | 0.02 | 92 | 1012.3 |
| 20260507040006 | 52 | 0 | 0.0 | 0.0 | 0.00 | 0.05 | 0.02 | 91 | 1012.3 |
| 20260507035711 | 52 | 0 | 0.0 | 0.0 | 0.00 | 0.05 | 0.02 | 91 | 1012.3 |
| 20260507035212 | 52 | 0 | 0.0 | 0.0 | 0.00 | 0.05 | 0.02 | 91 | 1012.4 |
| 20260507034503 | 52 | 0 | 0.0 | 0.0 | 0.00 | 0.05 | 0.02 | 91 | 1012.4 |
| 20260507034005 | 52 | 316 | 0.0 | 0.9 | 0.00 | 0.05 | 0.02 | 91 | 1012.3 |
| 20260507033503 | 52 | 316 | 0.0 | 1.7 | 0.00 | 0.05 | 0.02 | 92 | 1012.4 |
| 20260507033003 | 52 | 316 | 0.0 | 1.7 | 0.00 | 0.05 | 0.02 | 91 | 1012.3 |
| 20260507032505 | 52 | 316 | 0.0 | 0.9 | 0.00 | 0.05 | 0.02 | 91 | 1012.3 |
| 20260507032211 | 52 | 0 | 0.0 | 0.0 | 0.00 | 0.05 | 0.02 | 91 | 1012.3 |
| 20260507031503 | 52 | 316 | 0.0 | 1.7 | 0.00 | 0.05 | 0.02 | 91 | 1012.2 |
| 20260507031005 | 52 | 316 | 0.9 | 1.7 | 0.00 | 0.05 | 0.02 | 91 | 1012.2 |
| 20260507030710 | 52 | 316 | 0.9 | 1.7 | 0.00 | 0.05 | 0.02 | 91 | 1012.3 |
| 20260507030006 | 52 | 316 | 0.0 | 1.7 | 0.00 | 0.05 | 0.02 | 90 | 1012.2 |
| 20260507025503 | 52 | 316 | 0.0 | 1.7 | 0.00 | 0.05 | 0.02 | 90 | 1012.1 |
| 20260507025005 | 52 | 316 | 0.0 | 1.7 | 0.00 | 0.05 | 0.02 | 90 | 1011.9 |
| 20260507024503 | 52 | 316 | 0.0 | 1.7 | 0.00 | 0.05 | 0.02 | 90 | 1011.9 |
| 20260507024003 | 52 | 316 | 0.0 | 1.7 | 0.00 | 0.05 | 0.02 | 91 | 1012.0 |
| 20260507023505 | 52 | 316 | 0.0 | 1.7 | 0.00 | 0.05 | 0.02 | 91 | 1012.1 |
| 20260507023004 | 52 | 0 | 0.0 | 0.0 | 0.00 | 0.05 | 0.02 | 91 | 1012.0 |
| 20260507022503 | 52 | 316 | 0.0 | 0.9 | 0.00 | 0.05 | 0.02 | 91 | 1012.1 |
| 20260507022005 | 52 | 316 | 0.0 | 0.9 | 0.00 | 0.05 | 0.02 | 90 | 1012.1 |
| 20260507021503 | 52 | 316 | 0.0 | 0.9 | 0.00 | 0.05 | 0.02 | 90 | 1012.1 |
| 20260507021005 | 52 | 0 | 0.0 | 0.0 | 0.00 | 0.05 | 0.02 | 91 | 1012.1 |
| 20260507020503 | 52 | 0 | 0.0 | 0.0 | 0.00 | 0.05 | 0.02 | 91 | 1012.1 |
| 20260507020005 | 52 | 316 | 0.0 | 0.9 | 0.00 | 0.05 | 0.02 | 90 | 1012.1 |
| 20260507015503 | 52 | 316 | 0.0 | 0.9 | 0.00 | 0.05 | 0.02 | 89 | 1012.1 |
| 20260507015005 | 53 | 316 | 0.0 | 0.9 | 0.00 | 0.05 | 0.02 | 89 | 1012.0 |
| 20260507014503 | 53 | 316 | 0.0 | 0.9 | 0.00 | 0.05 | 0.02 | 89 | 1012.1 |
| 20260507014003 | 53 | 316 | 0.0 | 1.7 | 0.00 | 0.05 | 0.02 | 89 | 1012.0 |
| 20260507013505 | 53 | 316 | 0.0 | 1.7 | 0.00 | 0.05 | 0.02 | 89 | 1012.1 |
| 20260507013003 | 53 | 316 | 0.0 | 1.7 | 0.00 | 0.05 | 0.02 | 89 | 1012.0 |
| 20260507012503 | 54 | 0 | 0.0 | 0.0 | 0.00 | 0.05 | 0.02 | 88 | 1012.1 |
| 20260507012005 | 54 | 0 | 0.0 | 0.0 | 0.00 | 0.05 | 0.02 | 88 | 1012.1 |
| 20260507011503 | 54 | 314 | 0.9 | 2.6 | 0.00 | 0.05 | 0.02 | 89 | 1012.0 |
| 20260507011005 | 54 | 307 | 0.9 | 2.6 | 0.01 | 0.05 | 0.02 | 89 | 1012.1 |
| 20260507010503 | 54 | 303 | 0.0 | 2.6 | 0.01 | 0.05 | 0.02 | 89 | 1012.0 |
| 20260507010006 | 55 | 303 | 0.0 | 1.7 | 0.02 | 0.05 | 0.02 | 89 | 1011.9 |
| 20260507005503 | 55 | 303 | 0.0 | 0.9 | 0.02 | 0.05 | 0.02 | 88 | 1012.0 |
| 20260507005213 | 55 | 0 | 0.0 | 0.0 | 0.02 | 0.05 | 0.02 | 88 | 1012.0 |
| 20260507004503 | 55 | 303 | 0.9 | 1.7 | 0.02 | 0.05 | 0.02 | 88 | 1012.2 |
| 20260507004210 | 56 | 303 | 0.9 | 1.7 | 0.02 | 0.05 | 0.02 | 88 | 1012.1 |
| 20260507003505 | 56 | 288 | 0.9 | 2.6 | 0.02 | 0.05 | 0.02 | 89 | 1012.3 |
| 20260507003210 | 56 | 238 | 0.9 | 2.6 | 0.02 | 0.05 | 0.02 | 89 | 1012.2 |
| 20260507002503 | 56 | 105 | 0.9 | 1.7 | 0.02 | 0.05 | 0.02 | 88 | 1012.3 |
| 20260507002003 | 56 | 129 | 0.0 | 1.7 | 0.02 | 0.05 | 0.02 | 88 | 1012.3 |
| 20260507001504 | 56 | 132 | 0.0 | 1.7 | 0.02 | 0.05 | 0.02 | 88 | 1012.3 |
| 20260507001005 | 56 | 138 | 0.0 | 0.9 | 0.02 | 0.04 | 0.02 | 87 | 1012.4 |
| 20260507000503 | 57 | 138 | 0.0 | 0.9 | 0.02 | 0.04 | 0.02 | 88 | 1012.5 |
| 20260507000004 | 57 | 138 | 0.0 | 1.7 | 0.01 | 0.03 | 0.01 | 87 | 1012.6 |
| 20260506235505 | 57 | 138 | 0.0 | 2.6 | 0.01 | 0.03 | 0.01 | 87 | 1012.6 |
| 20260506235003 | 57 | 137 | 0.9 | 2.6 | 0.01 | 0.03 | 0.01 | 87 | 1012.6 |
| 20260506234712 | 57 | 136 | 0.9 | 2.6 | 0.01 | 0.03 | 0.01 | 87 | 1012.7 |
| 20260506234003 | 57 | 149 | 0.9 | 3.5 | 0.01 | 0.03 | 0.01 | 87 | 1012.6 |
| 20260506233503 | 57 | 176 | 0.0 | 3.5 | 0.01 | 0.03 | 0.01 | 86 | 1012.5 |
| 20260506233005 | 57 | 217 | 0.0 | 2.6 | 0.00 | 0.02 | 0.00 | 87 | 1012.6 |
| 20260506232503 | 57 | 246 | 0.9 | 1.7 | 0.00 | 0.02 | 0.00 | 87 | 1012.5 |
| 20260506232005 | 57 | 246 | 0.9 | 1.7 | 0.00 | 0.02 | 0.00 | 87 | 1012.3 |
| 20260506231503 | 57 | 250 | 0.9 | 2.6 | 0.00 | 0.02 | 0.00 | 87 | 1012.5 |
| 20260506231005 | 57 | 274 | 0.0 | 2.6 | 0.00 | 0.02 | 0.00 | 87 | 1012.4 |
| 20260506230508 | 57 | 311 | 0.0 | 1.7 | 0.00 | 0.02 | 0.00 | 88 | 1012.4 |
| 20260506230006 | 57 | 312 | 0.9 | 2.6 | 0.00 | 0.02 | 0.00 | 88 | 1012.3 |
| 20260506225503 | 57 | 316 | 0.9 | 2.6 | 0.00 | 0.02 | 0.00 | 87 | 1012.2 |
| 20260506225005 | 57 | 323 | 1.7 | 2.6 | 0.00 | 0.02 | 0.00 | 88 | 1012.3 |
| 20260506224710 | 57 | 314 | 1.7 | 3.5 | 0.00 | 0.02 | 0.00 | 88 | 1012.2 |
| 20260506224003 | 57 | 322 | 0.9 | 3.5 | 0.00 | 0.02 | 0.00 | 88 | 1012.3 |
| 20260506223505 | 57 | 331 | 0.9 | 2.6 | 0.00 | 0.02 | 0.00 | 88 | 1012.2 |
| 20260506223003 | 57 | 331 | 0.9 | 2.6 | 0.00 | 0.02 | 0.00 | 87 | 1012.1 |
| 20260506222505 | 57 | 332 | 0.9 | 2.6 | 0.00 | 0.02 | 0.00 | 87 | 1012.0 |
| 20260506222003 | 57 | 332 | 0.9 | 2.6 | 0.00 | 0.02 | 0.00 | 88 | 1012.0 |
| 20260506221504 | 57 | 332 | 0.9 | 2.6 | 0.00 | 0.02 | 0.00 | 88 | 1011.9 |
| 20260506221005 | 57 | 332 | 0.9 | 2.6 | 0.00 | 0.02 | 0.00 | 87 | 1011.9 |
| 20260506220503 | 57 | 332 | 0.9 | 2.6 | 0.00 | 0.02 | 0.00 | 87 | 1011.9 |
| 20260506220100 | 57 | 332 | 0.9 | 2.6 | 0.00 | 0.02 | 0.00 | 88 | 1011.9 |
| 20260506215503 | 57 | 332 | 0.9 | 1.7 | 0.00 | 0.02 | 0.02 | 87 | 1011.7 |
| 20260506215006 | 57 | 332 | 0.9 | 1.7 | 0.00 | 0.02 | 0.02 | 88 | 1011.6 |
| 20260506214710 | 57 | 332 | 0.0 | 1.7 | 0.00 | 0.02 | 0.02 | 87 | 1011.6 |
| 20260506214005 | 57 | 333 | 0.0 | 1.7 | 0.00 | 0.02 | 0.02 | 88 | 1011.6 |
| 20260506213503 | 57 | 333 | 0.0 | 1.7 | 0.00 | 0.02 | 0.02 | 87 | 1011.8 |
| 20260506213210 | 57 | 333 | 0.9 | 1.7 | 0.00 | 0.02 | 0.02 | 88 | 1011.8 |
| 20260506212505 | 57 | 322 | 0.9 | 2.6 | 0.00 | 0.02 | 0.02 | 88 | 1011.8 |
| 20260506212004 | 56 | 322 | 0.9 | 4.3 | 0.00 | 0.02 | 0.02 | 88 | 1011.6 |
| 20260506211505 | 56 | 319 | 0.9 | 4.3 | 0.00 | 0.02 | 0.02 | 88 | 1011.6 |